SL-8 DEB

Satellite information

Favourite Embed

Satellite Type and Status

DEBRISIN ORBIT

Key statistics

Satellite SL-8 DEB at a glance.

Uptime

16047

Days in orbit

Revolutions

≈ 16.2

Per day

Orbit

LEO

Low Earth Orbit

Inclination

74.0

Latest

Satellite identification and parameters

Extended collection of information and parameters for SL-8 DEB.

Object identification

Identified? True

Debris? True

Object name: SL-8 DEB

International designator: 1982-001D

Object number (NORAD): 13030

Object ID (CCSDS): 13030

Country: COMMONWEALTH OF INDEPENDENT STATES (CIS)

Current information (Y/N): Y

RCS size: SMALL

Orbital parameters

Period: 88.998 minutes

Inclination: 73.9625 deg

SMA: 6603.077 km

Apoapsis: 231.358 km

Periapsis: 218.526 km

RAAN: 228.5795 deg

Eccentricy: 0.00097173

Argument of periapsis: 177.2661 deg

Mean anomaly: 182.8642 deg

Mean motion: 16.18017507 rev/day

Mean motion (dot): 0.05935055 rev/day2

B* drag term: 0.003599187 1/REarth

Two-line elements (TLE)

Creation date: Dec. 11, 2025, 10:54 a.m.

Reference frame: TEME

Reference center: EARTH

Epoch: Dec. 11, 2025, 2:47 a.m. UTC

TLE line 0: 0 SL-8 DEB

TLE line 1: 1 13030U 82001D 25345.11634824 .05935055 19104-5 35992-2 0 9998

TLE line 2: 2 13030 73.9625 228.5795 0009717 177.2661 182.8642 16.18017507344045

Live tracking on map

Real-time ground track for satellite SL-8 DEB.

In-orbit conjunctions

A list of the most updated potential collisions computed for object SL-8 DEB.

Target Orbit TCA Probability of collision Miss distance Type
CLEMENTINE SSO 2025-02-10 20:38:51 0.0002964948 145.0 (m) PAYLOAD

Associated space launch

Military communications satellite

SL-8 DEB was lifted into orbit during the mission ‘Kosmos-3M | Strela-2M 26’, on board a Kosmos-3M space rocket.

The launch took place on Jan. 7, 1982, 3:38 p.m. from 132/2.

For more information about the launch, click the button.

Launch to space Kosmos-3M | Strela-2M 26
Kosmos-3M | Strela-2M 26

Agency: N/A

Status: Launch Successful

Launch date: Jan. 7, 1982, 3:38 p.m. UTC

Rocket: Kosmos-3M

Launch pad: 132/2

Location: Plesetsk Cosmodrome, Russian Federation

...

Latest news about this satellite

There are no fresh news available about this satellite. Check back as we update our databases every day.


Newsletter sign-up

Weekly statistics, charts and insights to help you stay on top of the space industry.